Regional Weather Roundup
Issued by NWS

Home | Current Version | Previous Version | Graphics & Text | Print | Product List | Glossary On
Versions: 1 2 3 4 5 6 7 8 9 10 11 12 13 14 15 16 17 18 19 20 21 22 23 24 25 26 27 28 29 30
000
ASUS45 KBOU 291007
RWRCO

WEATHER ROUNDUP FOR COLORADO
NATIONAL WEATHER SERVICE DENVER/BOULDER CO
400 AM MDT WED OCT 29 2014

NOTE: "FAIR" INDICATES FEW OR NO CLOUDS BELOW 12000 FEET WITH NO
SIGNIFICANT WEATHER AND/OR OBSTRUCTIONS TO VISIBILITY.

COZ001>005-013-030-031-291100-
...NORTHWEST COLORADO...

CITY           SKY/WX    TMP DP  RH WIND       PRES   REMARKS
CRAIG          PTCLDY    20  16  84 SW3       30.32F
HAYDEN         PTCLDY    28  19  69 E12       30.32S WCI  18
MEEKER         PTCLDY    27  21  78 NE5       30.33S WCI  22
MOUNT WERNER   NOT AVBL
STEAMBOAT SPGS PTCLDY    24  21  87 CALM      30.34S
WALDEN         PTCLDY    28  12  50 SE3       30.30S
$$

COZ006>008-011-291100-
...WEST CENTRAL VALLEYS...

CITY           SKY/WX    TMP DP  RH WIND       PRES   REMARKS
GRAND JUNCTION CLEAR     36  14  40 SE9       30.29S
MONTROSE       PTCLDY    31  15  52 S10       30.34F WCI  22
EAGLE          PTCLDY    25  12  58 CALM      30.39R
RIFLE          PTCLDY    27  14  58 S3        30.34S
DELTA          PTCLDY    32  15  50 E6        30.32F WCI  26
NUCLA          PTCLDY    32  10  40 CALM      30.35S
$$

COZ017>023-064>068-291100-
...SOUTHWEST COLORADO...

CITY           SKY/WX    TMP DP  RH WIND       PRES   REMARKS
DURANGO        PTCLDY    29  19  66 N5        30.31S WCI  24
CORTEZ         CLEAR     27  15  61 E6        30.30F WCI  20
PAGOSA SPRINGS PTCLDY    30  17  58 CALM      30.34F
TELLURIDE      PTCLDY    33  11  40 SE8       30.41F WCI  26
WOLF CREEK PAS CLEAR     28   7  40 SW12      30.46F WCI  18
$$

COZ009-010-012-014-032>034-037-058>063-291100-
...CENTRAL COLORADO...

CITY           SKY/WX    TMP DP  RH WIND       PRES   REMARKS
ASPEN          PTCLDY    27  12  53 S6        30.35S WCI  20
BUENA VISTA    CLEAR     36   2  23 N12G21    30.31S
COPPER MTN     CLEAR     30   9  40 W10G21    30.44S WCI  21
BERTHOUD PASS  FAIR      21  19  93 NW25      30.41S WCI   4
COTTONWOOD PAS CLEAR     41   0  17 NW8       30.36S
GUNNISON       CLEAR     19   3  49 NE6       30.42S WCI  11
KREMMLING      CLEAR     21  18  86 CALM        N/A
LEADVILLE      CLEAR     23   2  40 NE5       30.38S WCI  17
MONARCH PASS   CLEAR     27  -4  26 W32       30.52S WCI  10
SALIDA         CLEAR     29   9  42 CALM      30.39S
SUNLIGHT       PTCLDY    32   7  34 SW3       30.44S
WILKERSON PASS NOT AVBL
$$

COZ069>075-291100-
...SAN LUIS VALLEY/SANGRE DE CRISTO MOUNTAINS...

CITY           SKY/WX    TMP DP  RH WIND       PRES   REMARKS
ALAMOSA        MOCLDY    17  10  74 CALM      30.33S
LA VETA PASS   CLEAR     32   5  32 S9G17     30.37S WCI  24
SAGUACHE       CLEAR     32   3  29 NW14      30.35S WCI  22
$$

COZ035-036-038>040-291100-
...NORTHERN COLORADO FRONT RANGE...

CITY           SKY/WX    TMP DP  RH WIND       PRES   REMARKS
DENVER INTL AP PTCLDY    36  22  56 W8        30.18S
DMNS CITY PARK   N/A     34  26  72 S3        30.18F
AURORA         CLEAR     38  20  48 S10       30.19S
FRONT RANGE AP PTCLDY    36  27  69 S15       30.19R
ERIE MUNI ARPT CLEAR     28  25  89 CALM      30.19S FOG
BOULDER MUN AP CLEAR     34  27  75 S3        30.18S
CENTENNIAL     CLEAR     34  20  56 SE7       30.19S WCI  28
BROOMFIELD     CLEAR     36  27  69 CALM      30.19S
FORT COLLINS   PTCLDY    36  21  55 N3        30.19F
LONGMONT       PTCLDY    29  24  81 SW5       30.20F WCI  24
$$

COZ041-046-047-076>085-087-088-291100-
...PIKES PEAK/PALMER DIVIDE AND SOUTHERN FOOTHILLS...

CITY           SKY/WX    TMP DP  RH WIND       PRES   REMARKS
COLO. SPRINGS  CLEAR     36  22  56 NE9       30.21F
A. F. ACADEMY  CLEAR     34  13  41 N3        30.21F
ELLICOTT       NOT AVBL
FALCON         CLEAR     40  11  29 NW9       30.23F
FORT CARSON    CLEAR     33  22  63 N7        30.20S WCI  27
LIMON          CLEAR     25  20  81 NW3       30.20F
MONUMENT HILL  CLEAR     34  12  40 W8        30.21F WCI  27
TRINIDAD       CLEAR     38  24  57 SW14      30.22F
$$

COZ042>045-048>051-090-091-291100-
...NORTHEAST COLORADO...

CITY           SKY/WX    TMP DP  RH WIND       PRES   REMARKS
GREELEY ARPT   PTCLDY    27  16  63 CALM      30.19F
AKRON          CLEAR     40  23  50 SW9       30.16F
BURLINGTON     CLEAR     30  22  72 SW8       30.17F WCI  22
WRAY           CLEAR     31  23  73 W3        30.17F
STERLING       CLEAR     25  21  86 W3        30.17S
HOLYOKE        CLEAR     32  27  80 W5        30.16F WCI  27
FORT MORGAN    CLEAR     29  21  74 W7        30.18S WCI  21
$$

COZ086-089-092>099-291100-
...SOUTHEAST COLORADO...

CITY           SKY/WX    TMP DP  RH WIND       PRES   REMARKS
PUEBLO         PTCLDY    33  24  69 W8        30.20S WCI  26
LA JUNTA       CLEAR     34  26  72 W12       30.19S WCI  25
LAMAR          CLEAR     30  26  85 CALM      30.18R
SPRINGFIELD      N/A     37  29  72 SW9       30.19S
$$



USA.gov is the U.S. government's official web portal to all federal, state and local government web resources and services.